Aspen, CO

8:58 PM MDT on May 25, 2017 (GMT -0600)
Aspen-Pitkin County / Sardy Field

Weather History for KASE - March, 2014

Change the Weather History Date:

Saturday, March 15, 2014

  Actual Average Record
Temperature  
Mean Temperature 28 °F 31 °F  
Max Temperature 36 °F 43 °F 64 °F (2015)
Min Temperature 20 °F 19 °F 2 °F (1988)
Degree Days  
Heating Degree Days 37 34  
Month to date heating degree days 482 550  
Since 1 July heating degree days 6613 6869  
Cooling Degree Days 0 0  
Month to date cooling degree days 0 0  
Year to date cooling degree days 0 0  
Moisture  
Dew Point 17 °F    
Average Humidity 62    
Maximum Humidity 85    
Minimum Humidity 38    
Precipitation  
Precipitation T in 0.04 in 0.50 in (1984)
Month to date precipitation 0.72 0.58  
Year to date precipitation 3.50 2.82  
Sea Level Pressure  
Sea Level Pressure 30.09 in    
Wind  
Wind Speed 7 mph (NNW)    
Max Wind Speed 24 mph    
Max Gust Speed 42 mph    
Visibility 8 miles    
Events Snow    
T = Trace of Precipitation, MM = Missing Value Source: NWS Daily Summary

Daily Weather History Graph

Daily Weather History Graph

Search for Another Location

Airport or City:

Trip Planner

Search our weather history database for the weather conditions in past years. The results will help you decide how hot, cold, wet, or windy it might be!

Date:

Astronomy

Mar. 15, 2014 Rise Set
Actual Time 7:18 AM MDT 7:14 PM MDT
Civil Twilight 6:52 AM MDT 7:41 PM MDT
Nautical Twilight 6:21 AM MDT 8:12 PM MDT
Astronomical Twilight 5:49 AM MDT 8:43 PM MDT
Moon 6:36 PM MDT (3/15) 6:31 AM MDT (3/15)
Length of Visible Light 12h 49m
Length of Day
11h 55m
Waxing Gibbous, 99% of the Moon is Illuminated
Mar 15
Waxing Gibbous
Mar 16
Full
Mar 23
Last Quarter
Mar 30
New
Apr 7
First Quarter

Hourly Weather History & Observations

Time (MDT) Temp. Windchill Dew Point Humidity Pressure Visibility Wind Dir Wind Speed Gust Speed Precip Events Conditions
12:53 AM 25.0 °F 19.3 °F 15.1 °F 66% 29.94 in 10.0 mi SSW 4.6 mph - N/A   Clear
1:53 AM 25.0 °F 17.1 °F 14.0 °F 63% 29.94 in 10.0 mi SSW 6.9 mph - N/A   Scattered Clouds
2:53 AM 24.1 °F 18.2 °F 12.9 °F 62% 29.93 in 10.0 mi Variable 4.6 mph - N/A   Clear
3:53 AM 25.0 °F 18.1 °F 14.0 °F 63% 29.91 in 10.0 mi South 5.8 mph - N/A   Overcast
4:53 AM 26.1 °F - 15.1 °F 63% 29.91 in 10.0 mi Calm Calm - N/A   Overcast
5:53 AM 28.9 °F - 17.1 °F 61% 29.91 in 10.0 mi Calm Calm - N/A   Overcast
6:14 AM 28.9 °F 25.2 °F 18.0 °F 64% 30.05 in 10.0 mi North 3.5 mph - N/A   Overcast
6:23 AM 28.9 °F 18.2 °F 19.9 °F 69% 30.05 in 3.0 mi NNW 13.8 mph 20.7 mph 0.00 in Snow Light Snow
6:26 AM 28.9 °F 17.7 °F 21.9 °F 75% 30.05 in 1.8 mi NNW 15.0 mph 20.7 mph 0.00 in Snow Light Snow
6:35 AM 28.0 °F 19.3 °F 24.1 °F 85% 30.06 in 1.0 mi North 9.2 mph - 0.00 in Snow Light Snow
6:43 AM 27.0 °F 18.7 °F 24.1 °F 89% 30.05 in 0.8 mi NNE 8.1 mph - 0.00 in Snow Light Snow
6:49 AM 26.6 °F 18.2 °F 24.8 °F 93% 30.06 in 1.0 mi North 8.1 mph - 0.00 in Snow Light Snow
6:53 AM 27.0 °F 17.3 °F 24.1 °F 89% 29.96 in 1.5 mi North 10.4 mph - 0.00 in Snow Light Snow
6:55 AM 27.0 °F 18.0 °F 24.1 °F 89% 30.07 in 2.0 mi North 9.2 mph - 0.00 in Snow Light Snow
7:06 AM 27.0 °F 19.5 °F 25.0 °F 92% 30.06 in 6.0 mi NNE 6.9 mph - 0.00 in Snow Light Snow
7:19 AM 28.0 °F 22.8 °F 25.0 °F 88% 30.06 in 6.0 mi NNE 4.6 mph - 0.00 in   Overcast
7:53 AM 28.0 °F 22.8 °F 24.1 °F 85% 29.98 in 10.0 mi NNW 4.6 mph - 0.00 in   Overcast
8:53 AM 28.0 °F 24.2 °F 24.1 °F 85% 30.04 in 10.0 mi Variable 3.5 mph - N/A   Mostly Cloudy
9:53 AM 32.0 °F 24.2 °F 19.9 °F 61% 30.04 in 10.0 mi NNW 9.2 mph - N/A   Overcast
10:53 AM 33.1 °F 26.9 °F 15.1 °F 48% 30.03 in 10.0 mi West 6.9 mph - 0.00 in   Scattered Clouds
11:53 AM 34.0 °F 23.4 °F 12.9 °F 42% 30.04 in 10.0 mi WNW 17.3 mph 25.3 mph N/A   Mostly Cloudy
12:13 PM 28.9 °F 16.9 °F 19.9 °F 69% 30.13 in 2.5 mi NW 17.3 mph 41.4 mph 0.00 in Snow Light Snow
12:16 PM 28.9 °F 16.1 °F 19.9 °F 69% 30.13 in 1.5 mi NW 19.6 mph 41.4 mph 0.00 in Snow Light Snow
12:28 PM 28.0 °F 16.1 °F 19.9 °F 72% 30.15 in 10.0 mi NW 16.1 mph 31.1 mph 0.00 in Snow Light Snow
12:33 PM 28.9 °F 16.9 °F 19.9 °F 69% 30.15 in 10.0 mi NW 17.3 mph 31.1 mph 0.00 in Snow Light Snow
12:53 PM 28.9 °F 18.6 °F 16.0 °F 58% 30.14 in 10.0 mi WNW 12.7 mph 20.7 mph 0.00 in   Mostly Cloudy
1:53 PM 34.0 °F 25.5 °F 10.9 °F 38% 30.09 in 10.0 mi WSW 11.5 mph - N/A   Mostly Cloudy
2:53 PM 33.1 °F 24.4 °F 12.0 °F 42% 30.10 in 10.0 mi West 11.5 mph 24.2 mph N/A   Mostly Cloudy
3:36 PM 32.0 °F 22.1 °F 15.1 °F 50% 30.18 in 10.0 mi NNE 13.8 mph 27.6 mph N/A   Mostly Cloudy
3:53 PM 32.0 °F 26.4 °F 16.0 °F 52% 30.15 in 10.0 mi North 5.8 mph 18.4 mph N/A   Mostly Cloudy
4:53 PM 33.1 °F 23.9 °F 14.0 °F 46% 30.16 in 9.0 mi NW 12.7 mph - 0.00 in   Mostly Cloudy
5:53 PM 32.0 °F 24.2 °F 15.1 °F 50% 30.19 in 10.0 mi North 9.2 mph - N/A   Scattered Clouds
6:53 PM 32.0 °F 24.8 °F 10.0 °F 40% 30.22 in 10.0 mi NNW 8.1 mph - N/A   Scattered Clouds
7:53 PM 30.9 °F 23.5 °F 9.0 °F 40% 30.24 in 10.0 mi NW 8.1 mph - N/A   Overcast
8:53 PM 28.0 °F 24.2 °F 10.0 °F 47% 30.30 in 10.0 mi NNW 3.5 mph - N/A   Partly Cloudy
9:53 PM 25.0 °F 20.7 °F 10.9 °F 55% 30.32 in 10.0 mi SW 3.5 mph - N/A   Mostly Cloudy
10:53 PM 23.0 °F - 10.9 °F 60% 30.33 in 10.0 mi Calm Calm - N/A   Partly Cloudy
11:53 PM 21.9 °F 14.5 °F 9.0 °F 58% 30.35 in 10.0 mi SSW 5.8 mph - N/A   Clear